Weather History for Rochelle, IL

Change the Weather History Date:

Monday, November 19, 2012

  Actual Average (KRFD) Record (KRFD)
Temperature  
Mean Temperature 48 °F 37 °F  
Max Temperature 56 °F 46 °F 76 °F (1930)
Min Temperature 39 °F 29 °F 7 °F (1914)
Degree Days  
Heating Degree Days 18 28  
Month to date heating degree days 442  
Since 1 July heating degree days 995  
Cooling Degree Days 0 0  
Month to date cooling degree days 0  
Year to date cooling degree days 820  
Moisture  
Dew Point 39 °F    
Average Humidity 74    
Maximum Humidity 84    
Minimum Humidity 54    
Precipitation  
Precipitation 0.00 in 0.09 in 1.43 in (1934)
Month to date precipitation 1.67  
Year to date precipitation 33.35  
Snow  
Snow 0.00 in 0.00 in 2.00 in (1955)
Month to date snowfall 0.4  
Since 1 July snowfall 0.5  
Since 1 September snowfall 0.5  
Snow Depth -    
Sea Level Pressure  
Sea Level Pressure 30.19 in    
Wind  
Wind Speed 9 mph (South)    
Max Wind Speed 13 mph    
Max Gust Speed -    
Visibility 10 miles    
Events Rain    
T = Trace of Precipitation, MM = Missing Value Source: NWS Daily Summary

Daily Weather History Graph

Daily Weather History Graph

Search for Another Location

Airport:

Trip Planner

Search our weather history database for the weather conditions in past years. The results will help you decide how hot, cold, wet, or windy it might be!

Date:

Astronomy

Nov. 19, 2012 Rise Set
Actual Time 6:51 AM CST 4:31 PM CST
Civil Twilight 6:21 AM CST 5:02 PM CST
Nautical Twilight 5:47 AM CST 5:36 PM CST
Astronomical Twilight 5:13 AM CST 6:09 PM CST
Moon 11:52 AM CST (11/19) 11:01 PM CST (11/19)
Length of Visible Light 10h 41m
Length of Day
9h 40m
Waxing Crescent, 41% of the Moon is Illuminated
Nov 19
Waxing Crescent
Nov 20
First Quarter
Nov 28
Full
Dec 6
Last Quarter
Dec 13
New

Hourly Weather History & Observations

Time (CST) Temp. Windchill Dew Point Humidity Pressure Visibility Wind Dir Wind Speed Gust Speed Precip Events Conditions
12:15 AM 40.5 °F 35.1 °F 34.7 °F 80% 30.30 in 10.0 mi SSE 8.1 mph - N/A   Clear
12:35 AM 39.0 °F 32.8 °F 34.5 °F 84% 30.29 in 10.0 mi SSE 9.2 mph - N/A   Clear
12:55 AM 41.0 °F 35.2 °F 35.1 °F 79% 30.29 in 10.0 mi SSE 9.2 mph - N/A   Clear
1:15 AM 40.1 °F 35.3 °F 34.7 °F 81% 30.28 in 10.0 mi SSE 6.9 mph - N/A   Clear
1:35 AM 39.7 °F 34.3 °F 34.7 °F 82% 30.28 in 10.0 mi SSE 8.1 mph - N/A   Clear
1:55 AM 40.1 °F 34.1 °F 34.7 °F 81% 30.27 in 10.0 mi SE 9.2 mph - N/A   Clear
2:35 AM 39.2 °F 34.2 °F 34.3 °F 83% 30.26 in 10.0 mi SSE 6.9 mph - N/A   Clear
2:55 AM 39.7 °F 34.9 °F 34.9 °F 83% 30.26 in 10.0 mi SSE 6.9 mph - N/A   Clear
3:15 AM 39.6 °F 34.7 °F 35.1 °F 84% 30.26 in 7.0 mi SSE 6.9 mph - N/A   Clear
3:55 AM 40.3 °F 34.9 °F 35.6 °F 83% 30.26 in 7.0 mi SSE 8.1 mph - N/A   Clear
4:15 AM 40.6 °F 35.4 °F 35.6 °F 82% 30.26 in 7.0 mi SSE 8.1 mph - N/A   Clear
4:35 AM 39.7 °F 33.7 °F 35.2 °F 84% 30.26 in 7.0 mi SE 9.2 mph - N/A   Clear
4:55 AM 39.7 °F 33.7 °F 34.9 °F 83% 30.26 in 7.0 mi SE 9.2 mph - N/A   Clear
5:15 AM 39.6 °F 33.5 °F 34.7 °F 83% 30.25 in 7.0 mi SE 9.2 mph - N/A   Clear
5:35 AM 39.6 °F 33.5 °F 34.5 °F 82% 30.25 in 7.0 mi SE 9.2 mph - N/A   Clear
5:55 AM 39.4 °F 33.8 °F 34.5 °F 83% 30.25 in 10.0 mi SSE 8.1 mph - N/A   Clear
6:15 AM 40.1 °F 33.6 °F 34.7 °F 81% 30.24 in 10.0 mi SE 10.4 mph - N/A   Clear
6:35 AM 39.4 °F 32.7 °F 34.7 °F 83% 30.24 in 10.0 mi SSE 10.4 mph - N/A   Clear
6:55 AM 40.3 °F 33.4 °F 35.1 °F 82% 30.24 in 10.0 mi SE 11.5 mph - N/A   Clear
7:35 AM 39.7 °F 34.3 °F 35.2 °F 84% 30.24 in 7.0 mi SE 8.1 mph - N/A   Clear
7:55 AM 40.6 °F 36.0 °F 35.6 °F 82% 30.24 in 7.0 mi SE 6.9 mph - N/A   Clear
8:15 AM 42.4 °F 38.8 °F 36.3 °F 79% 30.25 in 10.0 mi South 5.8 mph - N/A   Clear
8:35 AM 43.0 °F 38.2 °F 36.5 °F 78% 30.25 in 10.0 mi South 8.1 mph - N/A   Clear
8:55 AM 43.9 °F 38.3 °F 36.9 °F 76% 30.24 in 10.0 mi SSE 10.4 mph - N/A   Clear
9:15 AM 44.8 °F 39.0 °F 36.7 °F 73% 30.24 in 10.0 mi SSE 11.5 mph - N/A   Clear
9:35 AM 45.5 °F 40.3 °F 36.7 °F 71% 30.24 in 10.0 mi South 10.4 mph - N/A   Clear
9:55 AM 46.4 °F 42.4 °F 37.4 °F 71% 30.24 in 10.0 mi South 8.1 mph - N/A   Clear
10:15 AM 48.0 °F - 37.6 °F 67% 30.24 in 10.0 mi South 11.5 mph - N/A   Clear
10:35 AM 50.2 °F - 38.7 °F 65% 30.22 in 10.0 mi SSW 9.2 mph - N/A   Clear
10:55 AM 52.7 °F - 38.3 °F 58% 30.22 in 10.0 mi South 11.5 mph - N/A   Clear
11:15 AM 53.2 °F - 38.5 °F 57% 30.20 in 10.0 mi South 10.4 mph - N/A   Clear
11:35 AM 54.5 °F - 38.3 °F 54% 30.20 in 10.0 mi South 9.2 mph - N/A   Clear
11:55 AM 54.9 °F - 38.8 °F 55% 30.19 in 10.0 mi SSW 12.7 mph - N/A   Clear
12:15 PM 54.3 °F - 39.0 °F 56% 30.18 in 10.0 mi South 12.7 mph - N/A   Clear
12:35 PM 54.9 °F - 39.0 °F 55% 30.18 in 10.0 mi SSW 11.5 mph - N/A   Clear
12:55 PM 56.1 °F - 40.1 °F 55% 30.18 in 10.0 mi SSW 11.5 mph - N/A   Clear
1:15 PM 55.6 °F - 40.6 °F 57% 30.17 in 10.0 mi SSW 10.4 mph - N/A   Clear
1:35 PM 54.5 °F - 41.0 °F 60% 30.16 in 10.0 mi SSW 10.4 mph - N/A   Mostly Cloudy
1:55 PM 54.1 °F - 40.6 °F 60% 30.15 in 10.0 mi SSW 12.7 mph - N/A   Overcast
2:15 PM 54.1 °F - 40.8 °F 61% 30.15 in 10.0 mi SSW 11.5 mph - N/A   Overcast
2:35 PM 54.0 °F - 40.6 °F 61% 30.15 in 10.0 mi South 9.2 mph - N/A   Overcast
2:55 PM 54.5 °F - 40.5 °F 59% 30.14 in 10.0 mi SSE 10.4 mph - N/A   Scattered Clouds
3:15 PM 54.5 °F - 40.5 °F 59% 30.13 in 10.0 mi South 11.5 mph - N/A   Scattered Clouds
3:35 PM 53.4 °F - 41.0 °F 63% 30.13 in 10.0 mi South 12.7 mph - N/A   Scattered Clouds
3:55 PM 51.8 °F - 41.0 °F 67% 30.14 in 10.0 mi SSE 9.2 mph - N/A   Mostly Cloudy
4:15 PM 50.0 °F - 41.2 °F 72% 30.14 in 10.0 mi South 8.1 mph - N/A   Scattered Clouds
4:35 PM 49.6 °F - 41.7 °F 74% 30.12 in 10.0 mi SSE 10.4 mph - N/A   Mostly Cloudy
4:55 PM 49.3 °F - 41.9 °F 76% 30.12 in 10.0 mi SSE 10.4 mph - N/A   Overcast
5:15 PM 49.1 °F - 41.9 °F 76% 30.12 in 10.0 mi SSE 10.4 mph - N/A   Mostly Cloudy
5:35 PM 49.1 °F - 41.7 °F 76% 30.12 in 10.0 mi SSE 9.2 mph - N/A   Overcast
5:55 PM 48.7 °F - 41.0 °F 75% 30.12 in 10.0 mi SSE 9.2 mph - N/A   Overcast
6:15 PM 48.7 °F - 41.0 °F 75% 30.12 in 10.0 mi SSE 10.4 mph - N/A   Overcast
6:35 PM 48.9 °F - 41.0 °F 74% 30.12 in 10.0 mi SSE 11.5 mph - N/A   Overcast
6:55 PM 49.1 °F - 40.6 °F 73% 30.12 in 10.0 mi South 10.4 mph - N/A   Overcast
7:15 PM 49.1 °F - 40.3 °F 72% 30.12 in 10.0 mi South 9.2 mph - N/A   Overcast
7:55 PM 49.1 °F - 40.3 °F 72% 30.12 in 10.0 mi South 9.2 mph - N/A   Overcast
8:15 PM 48.7 °F - 40.6 °F 74% 30.12 in 10.0 mi South 8.1 mph - N/A   Overcast
8:35 PM 48.6 °F - 41.0 °F 75% 30.12 in 10.0 mi South 6.9 mph - N/A Rain Light Rain
9:15 PM 47.7 °F - 42.1 °F 81% 30.11 in 10.0 mi South 6.9 mph - N/A   Overcast
9:35 PM 48.2 °F - 41.9 °F 79% 30.11 in 10.0 mi South 9.2 mph - N/A   Overcast
9:55 PM 47.8 °F - 42.3 °F 81% 30.10 in 10.0 mi South 9.2 mph - N/A   Overcast
10:15 PM 48.2 °F - 41.9 °F 79% 30.10 in 10.0 mi South 9.2 mph - N/A   Overcast
10:35 PM 48.2 °F - 41.9 °F 79% 30.09 in 10.0 mi South 10.4 mph - N/A   Overcast
10:55 PM 47.7 °F - 41.5 °F 79% 30.09 in 10.0 mi South 9.2 mph - N/A   Overcast
11:15 PM 48.0 °F - 41.9 °F 79% 30.09 in 10.0 mi South 8.1 mph - N/A   Overcast
11:35 PM 47.8 °F - 41.9 °F 80% 30.09 in 10.0 mi South 6.9 mph - N/A   Overcast
11:55 PM 47.8 °F - 41.9 °F 80% 30.09 in 10.0 mi South 5.8 mph - N/A   Overcast